Tracking 23610 objects as of 19-Sep-2021
HD Live streaming from Space Station
objects crossing your sky now

SL-14 R/B

Track SL-14 R/B now!
10-day predictions


NORAD ID: 21034
Int'l Code: 1990-114G
Perigee: 1,418.7 km
Apogee: 1,478.6 km
Inclination: 82.6 °
Period: 114.7 minutes
Semi major axis: 7819 km
RCS: 5.0163 m2 (large)
Launch date: December 22, 1990
Source: Commonwealth of Independent States (former USSR) (CIS)
Launch site: PLESETSK MISSILE AND SPACE COMPLEX (PKMTR)

Note: This is a ROCKET BODY
aabbcc
Your satellite tracking list
Your tracking list is empty




NASA's NSSDC Master Catalog

Two Line Element Set (TLE):
1 21034U 90114G   21262.56988523  .00000014  00000-0  22319-4 0  9990
2 21034  82.5714 343.5016 0038295 291.6470 137.5763 12.55517650408817
Source of the keplerian elements: AFSPC